Year,Month,Day,Hour,Minute,Value (Times are PST for temperature in C)
2016,04,20,00,00,17.20
2016,04,20,00,01,17.20
2016,04,20,00,02,17.20
2016,04,20,00,03,17.20
2016,04,20,00,04,17.20
2016,04,20,00,05,17.20
2016,04,20,00,06,17.20
2016,04,20,00,07,17.20
2016,04,20,00,08,17.10
2016,04,20,00,09,17.10
2016,04,20,00,10,17.10
2016,04,20,00,11,17.10
2016,04,20,00,12,17.10
2016,04,20,00,13,17.00
2016,04,20,00,14,17.00
2016,04,20,00,15,17.00
2016,04,20,00,16,16.90
2016,04,20,00,17,16.90
2016,04,20,00,18,16.90
2016,04,20,00,19,16.80
2016,04,20,00,20,16.80
2016,04,20,00,21,16.80
2016,04,20,00,22,16.70
2016,04,20,00,23,16.70
2016,04,20,00,24,16.70
2016,04,20,00,25,16.60
2016,04,20,00,26,16.60
2016,04,20,00,27,16.50
2016,04,20,00,28,16.50
2016,04,20,00,29,16.40
2016,04,20,00,30,16.40
2016,04,20,00,31,16.30
2016,04,20,00,32,16.30
2016,04,20,00,33,16.30
2016,04,20,00,34,16.20
2016,04,20,00,35,16.20
2016,04,20,00,36,16.10
2016,04,20,00,37,16.00
2016,04,20,00,38,16.00
2016,04,20,00,39,16.00
2016,04,20,00,40,15.90
2016,04,20,00,41,15.90
2016,04,20,00,42,15.80
2016,04,20,00,43,15.80
2016,04,20,00,44,15.70
2016,04,20,00,45,15.70
2016,04,20,00,46,15.70
2016,04,20,00,47,15.60
2016,04,20,00,48,15.60
2016,04,20,00,49,15.60
2016,04,20,00,50,15.50
2016,04,20,00,51,15.50
2016,04,20,00,52,15.40
2016,04,20,00,53,15.40
2016,04,20,00,54,15.30
2016,04,20,00,55,15.30
2016,04,20,00,56,15.30
2016,04,20,00,57,15.30
2016,04,20,00,58,15.20
2016,04,20,00,59,15.20
2016,04,20,01,00,15.20
2016,04,20,01,01,15.20
2016,04,20,01,02,15.10
2016,04,20,01,03,15.10
2016,04,20,01,04,15.10
2016,04,20,01,05,15.10
2016,04,20,01,06,15.10
2016,04,20,01,07,15.10
2016,04,20,01,08,15.10
2016,04,20,01,09,15.00
2016,04,20,01,10,15.00
2016,04,20,01,11,15.00
2016,04,20,01,12,14.90
2016,04,20,01,13,14.90
2016,04,20,01,14,14.90
2016,04,20,01,15,14.90
2016,04,20,01,16,14.90
2016,04,20,01,17,14.90
2016,04,20,01,18,14.90
2016,04,20,01,19,14.90
2016,04,20,01,20,14.90
2016,04,20,01,21,14.90
2016,04,20,01,22,14.80
2016,04,20,01,23,14.80
2016,04,20,01,24,14.80
2016,04,20,01,25,14.80
2016,04,20,01,26,14.80
2016,04,20,01,27,14.80
2016,04,20,01,28,14.80
2016,04,20,01,29,14.80
2016,04,20,01,30,14.80
2016,04,20,01,31,14.80
2016,04,20,01,32,14.80
2016,04,20,01,33,14.70
2016,04,20,01,34,14.70
2016,04,20,01,35,14.70
2016,04,20,01,36,14.70
2016,04,20,01,37,14.70
2016,04,20,01,38,14.60
2016,04,20,01,39,14.60
2016,04,20,01,40,14.60
2016,04,20,01,41,14.60
2016,04,20,01,42,14.50
2016,04,20,01,43,14.50
2016,04,20,01,44,14.50
2016,04,20,01,45,14.50
2016,04,20,01,46,14.50
2016,04,20,01,47,14.50
2016,04,20,01,48,14.40
2016,04,20,01,49,14.40
2016,04,20,01,50,14.40
2016,04,20,01,51,14.40
2016,04,20,01,52,14.40
2016,04,20,01,53,14.30
2016,04,20,01,54,14.30
2016,04,20,01,55,14.30
2016,04,20,01,56,14.30
2016,04,20,01,57,14.30
2016,04,20,01,58,14.30
2016,04,20,01,59,14.20
2016,04,20,02,00,14.20
2016,04,20,02,01,14.20
2016,04,20,02,02,14.20
2016,04,20,02,03,14.10
2016,04,20,02,04,14.10
2016,04,20,02,05,14.10
2016,04,20,02,06,14.10
2016,04,20,02,07,14.00
2016,04,20,02,08,14.00
2016,04,20,02,09,13.90
2016,04,20,02,10,13.90
2016,04,20,02,11,13.90
2016,04,20,02,12,13.90
2016,04,20,02,13,13.80
2016,04,20,02,14,13.80
2016,04,20,02,15,13.80
2016,04,20,02,16,13.80
2016,04,20,02,17,13.80
2016,04,20,02,18,13.70
2016,04,20,02,19,13.70
2016,04,20,02,20,13.70
2016,04,20,02,21,13.70
2016,04,20,02,22,13.70
2016,04,20,02,23,13.70
2016,04,20,02,24,13.70
2016,04,20,02,25,13.70
2016,04,20,02,26,13.70
2016,04,20,02,27,13.60
2016,04,20,02,28,13.60
2016,04,20,02,29,13.60
2016,04,20,02,30,13.60
2016,04,20,02,31,13.60
2016,04,20,02,32,13.60
2016,04,20,02,33,13.50
2016,04,20,02,34,13.50
2016,04,20,02,35,13.50
2016,04,20,02,36,13.50
2016,04,20,02,37,13.50
2016,04,20,02,38,13.40
2016,04,20,02,39,13.40
2016,04,20,02,40,13.40
2016,04,20,02,41,13.40
2016,04,20,02,42,13.40
2016,04,20,02,43,13.40
2016,04,20,02,44,13.40
2016,04,20,02,45,13.40
2016,04,20,02,46,13.30
2016,04,20,02,47,13.30
2016,04,20,02,48,13.30
2016,04,20,02,49,13.30
2016,04,20,02,50,13.30
2016,04,20,02,51,13.30
2016,04,20,02,52,13.20
2016,04,20,02,53,13.20
2016,04,20,02,54,13.20
2016,04,20,02,55,13.20
2016,04,20,02,56,13.20
2016,04,20,02,57,13.10
2016,04,20,02,58,13.10
2016,04,20,02,59,13.10
2016,04,20,03,00,13.10
2016,04,20,03,01,13.10
2016,04,20,03,02,13.00
2016,04,20,03,03,13.00
2016,04,20,03,04,13.00
2016,04,20,03,05,13.00
2016,04,20,03,06,12.90
2016,04,20,03,07,12.90
2016,04,20,03,08,12.90
2016,04,20,03,09,12.90
2016,04,20,03,10,13.00
2016,04,20,03,11,13.00
2016,04,20,03,12,13.10
2016,04,20,03,13,13.10
2016,04,20,03,14,13.10
2016,04,20,03,15,13.10
2016,04,20,03,16,13.10
2016,04,20,03,17,13.10
2016,04,20,03,18,13.10
2016,04,20,03,19,13.10
2016,04,20,03,20,13.10
2016,04,20,03,21,13.10
2016,04,20,03,22,13.10
2016,04,20,03,23,13.10
2016,04,20,03,24,13.10
2016,04,20,03,25,13.10
2016,04,20,03,26,13.00
2016,04,20,03,27,13.00
2016,04,20,03,28,13.00
2016,04,20,03,29,13.00
2016,04,20,03,30,12.90
2016,04,20,03,31,12.90
2016,04,20,03,32,12.90
2016,04,20,03,33,12.90
2016,04,20,03,34,12.80
2016,04,20,03,35,12.80
2016,04,20,03,36,12.80
2016,04,20,03,37,12.80
2016,04,20,03,38,12.80
2016,04,20,03,39,12.80
2016,04,20,03,40,12.70
2016,04,20,03,41,12.70
2016,04,20,03,42,12.70
2016,04,20,03,43,12.70
2016,04,20,03,44,12.70
2016,04,20,03,45,12.70
2016,04,20,03,46,12.70
2016,04,20,03,47,12.70
2016,04,20,03,48,12.70
2016,04,20,03,49,12.70
2016,04,20,03,50,12.70
2016,04,20,03,51,12.70
2016,04,20,03,52,12.70
2016,04,20,03,53,12.70
2016,04,20,03,54,12.70
2016,04,20,03,55,12.70
2016,04,20,03,56,12.70
2016,04,20,03,57,12.70
2016,04,20,03,58,12.70
2016,04,20,03,59,12.60
2016,04,20,04,00,12.60
2016,04,20,04,01,12.60
2016,04,20,04,02,12.60
2016,04,20,04,03,12.60
2016,04,20,04,04,12.60
2016,04,20,04,05,12.60
2016,04,20,04,06,12.60
2016,04,20,04,07,12.60
2016,04,20,04,08,12.60
2016,04,20,04,09,12.60
2016,04,20,04,10,12.70
2016,04,20,04,11,12.80
2016,04,20,04,12,12.80
2016,04,20,04,13,12.90
2016,04,20,04,14,13.00
2016,04,20,04,15,13.10
2016,04,20,04,16,13.20
2016,04,20,04,17,13.40
2016,04,20,04,18,13.50
2016,04,20,04,19,13.60
2016,04,20,04,20,13.80
2016,04,20,04,21,14.00
2016,04,20,04,22,14.20
2016,04,20,04,23,14.30
2016,04,20,04,24,14.40
2016,04,20,04,25,14.50
2016,04,20,04,26,14.60
2016,04,20,04,27,14.70
2016,04,20,04,28,14.70
2016,04,20,04,29,14.70
2016,04,20,04,30,14.80
2016,04,20,04,31,14.80
2016,04,20,04,32,14.80
2016,04,20,04,33,14.80
2016,04,20,04,34,14.80
2016,04,20,04,35,14.80
2016,04,20,04,36,14.90
2016,04,20,04,37,15.00
2016,04,20,04,38,15.00
2016,04,20,04,39,15.10
2016,04,20,04,40,15.10
2016,04,20,04,41,15.20
2016,04,20,04,42,15.20
2016,04,20,04,43,15.30
2016,04,20,04,44,15.30
2016,04,20,04,45,15.40
2016,04,20,04,46,15.40
2016,04,20,04,47,15.50
2016,04,20,04,48,15.50
2016,04,20,04,49,15.60
2016,04,20,04,50,15.70
2016,04,20,04,51,15.70
2016,04,20,04,52,15.80
2016,04,20,04,53,15.80
2016,04,20,04,54,15.80
2016,04,20,04,55,15.80
2016,04,20,04,56,15.80
2016,04,20,04,57,15.80
2016,04,20,04,58,15.80
2016,04,20,04,59,15.80
2016,04,20,05,00,15.80
2016,04,20,05,01,15.80
2016,04,20,05,02,15.80
2016,04,20,05,03,15.80
2016,04,20,05,04,15.80
2016,04,20,05,05,15.80
2016,04,20,05,06,15.80
2016,04,20,05,07,15.80
2016,04,20,05,08,15.80
2016,04,20,05,09,15.80
2016,04,20,05,10,15.80
2016,04,20,05,11,15.80
2016,04,20,05,12,15.80
2016,04,20,05,13,15.70
2016,04,20,05,14,15.70
2016,04,20,05,15,15.70
2016,04,20,05,16,15.60
2016,04,20,05,17,15.60
2016,04,20,05,18,15.50
2016,04,20,05,19,15.50
2016,04,20,05,20,15.40
2016,04,20,05,21,15.40
2016,04,20,05,22,15.30
2016,04,20,05,23,15.30
2016,04,20,05,24,15.30
2016,04,20,05,25,15.30
2016,04,20,05,26,15.40
2016,04,20,05,27,15.40
2016,04,20,05,28,15.50
2016,04,20,05,29,15.50
2016,04,20,05,30,15.60
2016,04,20,05,31,15.70
2016,04,20,05,32,15.70
2016,04,20,05,33,15.80
2016,04,20,05,34,15.90
2016,04,20,05,35,16.00
2016,04,20,05,36,16.00
2016,04,20,05,37,16.10
2016,04,20,05,38,16.10
2016,04,20,05,39,16.10
2016,04,20,05,40,16.10
2016,04,20,05,41,16.10
2016,04,20,05,42,16.10
2016,04,20,05,43,16.10
2016,04,20,05,44,16.10
2016,04,20,05,45,16.00
2016,04,20,05,46,16.00
2016,04,20,05,47,15.90
2016,04,20,05,48,15.90
2016,04,20,05,49,15.80
2016,04,20,05,50,15.80
2016,04,20,05,51,15.70
2016,04,20,05,52,15.60
2016,04,20,05,53,15.50
2016,04,20,05,54,15.30
2016,04,20,05,55,15.20
2016,04,20,05,56,15.10
2016,04,20,05,57,15.00
2016,04,20,05,58,14.90
2016,04,20,05,59,14.80
2016,04,20,06,00,14.70
2016,04,20,06,01,14.60
2016,04,20,06,02,14.50
2016,04,20,06,03,14.40
2016,04,20,06,04,14.30
2016,04,20,06,05,14.20
2016,04,20,06,06,14.10
2016,04,20,06,07,14.00
2016,04,20,06,08,13.90
2016,04,20,06,09,13.80
2016,04,20,06,10,13.80
2016,04,20,06,11,13.70
2016,04,20,06,12,13.60
2016,04,20,06,13,13.60
2016,04,20,06,14,13.60
2016,04,20,06,15,13.50
2016,04,20,06,16,13.50
2016,04,20,06,17,13.40
2016,04,20,06,18,13.40
2016,04,20,06,19,13.40
2016,04,20,06,20,13.30
2016,04,20,06,21,13.30
2016,04,20,06,22,13.30
2016,04,20,06,23,13.30
2016,04,20,06,24,13.20
2016,04,20,06,25,13.20
2016,04,20,06,26,13.20
2016,04,20,06,27,13.20
2016,04,20,06,28,13.20
2016,04,20,06,29,13.20
2016,04,20,06,30,13.20
2016,04,20,06,31,13.20
2016,04,20,06,32,13.20
2016,04,20,06,33,13.10
2016,04,20,06,34,13.10
2016,04,20,06,35,13.10
2016,04,20,06,36,13.10
2016,04,20,06,37,13.10
2016,04,20,06,38,13.10
2016,04,20,06,39,13.10
2016,04,20,06,40,13.10
2016,04,20,06,41,13.10
2016,04,20,06,42,13.10
2016,04,20,06,43,13.10
2016,04,20,06,44,13.10
2016,04,20,06,45,13.10
2016,04,20,06,46,13.10
2016,04,20,06,47,13.10
2016,04,20,06,48,13.00
2016,04,20,06,49,13.00
2016,04,20,06,50,13.00
2016,04,20,06,51,13.00
2016,04,20,06,52,13.00
2016,04,20,06,53,13.00
2016,04,20,06,54,13.00
2016,04,20,06,55,13.00
2016,04,20,06,56,13.00
2016,04,20,06,57,13.00
2016,04,20,06,58,13.10
2016,04,20,06,59,13.10
2016,04,20,07,00,13.10
2016,04,20,07,01,13.20
2016,04,20,07,02,13.20
2016,04,20,07,03,13.20
2016,04,20,07,04,13.30
2016,04,20,07,05,13.50
2016,04,20,07,06,13.70
2016,04,20,07,07,13.90
2016,04,20,07,08,14.20
2016,04,20,07,09,14.40
2016,04,20,07,10,14.70
2016,04,20,07,11,14.90
2016,04,20,07,12,15.20
2016,04,20,07,13,15.40
2016,04,20,07,14,15.60
2016,04,20,07,15,15.80
2016,04,20,07,16,15.90
2016,04,20,07,17,16.10
2016,04,20,07,18,16.20
2016,04,20,07,19,16.40
2016,04,20,07,20,16.50
2016,04,20,07,21,16.70
2016,04,20,07,22,16.80
2016,04,20,07,23,17.00
2016,04,20,07,24,17.10
2016,04,20,07,25,17.20
2016,04,20,07,26,17.40
2016,04,20,07,27,17.50
2016,04,20,07,28,17.60
2016,04,20,07,29,17.60
2016,04,20,07,30,17.70
2016,04,20,07,31,17.80
2016,04,20,07,32,17.90
2016,04,20,07,33,17.90
2016,04,20,07,34,18.00
2016,04,20,07,35,18.00
2016,04,20,07,36,18.00
2016,04,20,07,37,18.10
2016,04,20,07,38,18.20
2016,04,20,07,39,18.20
2016,04,20,07,40,18.30
2016,04,20,07,41,18.30
2016,04,20,07,42,18.40
2016,04,20,07,43,18.40
2016,04,20,07,44,18.50
2016,04,20,07,45,18.60
2016,04,20,07,46,18.70
2016,04,20,07,47,18.80
2016,04,20,07,48,18.90
2016,04,20,07,49,19.00
2016,04,20,07,50,19.10
2016,04,20,07,51,19.20
2016,04,20,07,52,19.30
2016,04,20,07,53,19.30
2016,04,20,07,54,19.40
2016,04,20,07,55,19.50
2016,04,20,07,56,19.50
2016,04,20,07,57,19.60
2016,04,20,07,58,19.60
2016,04,20,07,59,19.70
2016,04,20,08,00,19.70
2016,04,20,08,01,19.70
2016,04,20,08,02,19.70
2016,04,20,08,03,19.70
2016,04,20,08,04,19.80
2016,04,20,08,05,19.80
2016,04,20,08,06,19.80
2016,04,20,08,07,19.80
2016,04,20,08,08,19.80
2016,04,20,08,09,19.80
2016,04,20,08,10,19.80
2016,04,20,08,11,19.80
2016,04,20,08,12,19.90
2016,04,20,08,13,19.90
2016,04,20,08,14,19.90
2016,04,20,08,15,19.90
2016,04,20,08,16,19.90
2016,04,20,08,17,19.90
2016,04,20,08,18,19.90
2016,04,20,08,19,19.90
2016,04,20,08,20,19.90
2016,04,20,08,21,19.90
2016,04,20,08,22,19.90
2016,04,20,08,23,19.90
2016,04,20,08,24,19.90
2016,04,20,08,25,19.90
2016,04,20,08,26,19.90
2016,04,20,08,27,19.90
2016,04,20,08,28,19.90
2016,04,20,08,29,19.90
2016,04,20,08,30,19.90
2016,04,20,08,31,19.90
2016,04,20,08,32,19.90
2016,04,20,08,33,19.90
2016,04,20,08,34,19.90
2016,04,20,08,35,19.90
2016,04,20,08,36,19.90
2016,04,20,08,37,19.90
2016,04,20,08,38,19.90
2016,04,20,08,39,20.00
2016,04,20,08,40,20.00
2016,04,20,08,41,20.10
2016,04,20,08,42,20.10
2016,04,20,08,43,20.10
2016,04,20,08,44,20.10
2016,04,20,08,45,20.10
2016,04,20,08,46,20.10
2016,04,20,08,47,20.10
2016,04,20,08,48,20.00
2016,04,20,08,49,20.00
2016,04,20,08,50,20.00
2016,04,20,08,51,20.00
2016,04,20,08,52,20.00
2016,04,20,08,53,20.00
2016,04,20,08,54,20.00
2016,04,20,08,55,20.00
2016,04,20,08,56,20.00
2016,04,20,08,57,20.10
2016,04,20,08,58,20.10
2016,04,20,08,59,20.10
2016,04,20,09,00,20.10
2016,04,20,09,01,20.10
2016,04,20,09,02,20.10
2016,04,20,09,03,20.20
2016,04,20,09,04,20.20
2016,04,20,09,05,20.20
2016,04,20,09,06,20.20
2016,04,20,09,07,20.20
2016,04,20,09,08,20.20
2016,04,20,09,09,20.20
2016,04,20,09,10,20.20
2016,04,20,09,11,20.20
2016,04,20,09,12,20.20
2016,04,20,09,13,20.30
2016,04,20,09,14,20.30
2016,04,20,09,15,20.30
2016,04,20,09,16,20.40
2016,04,20,09,17,20.40
2016,04,20,09,18,20.40
2016,04,20,09,19,20.40
2016,04,20,09,20,20.50
2016,04,20,09,21,20.50
2016,04,20,09,22,20.60
2016,04,20,09,23,20.70
2016,04,20,09,24,20.70
2016,04,20,09,25,20.70
2016,04,20,09,26,20.80
2016,04,20,09,27,20.80
2016,04,20,09,28,20.80
2016,04,20,09,29,20.80
2016,04,20,09,30,20.70
2016,04,20,09,31,20.70
2016,04,20,09,32,20.70
2016,04,20,09,33,20.80
2016,04,20,09,34,20.80
2016,04,20,09,35,20.80
2016,04,20,09,36,20.80
2016,04,20,09,37,20.80
2016,04,20,09,38,20.80
2016,04,20,09,39,20.80
2016,04,20,09,40,20.80
2016,04,20,09,41,20.90
2016,04,20,09,42,20.90
2016,04,20,09,43,20.90
2016,04,20,09,44,20.90
2016,04,20,09,45,21.00
2016,04,20,09,46,21.10
2016,04,20,09,47,21.10
2016,04,20,09,48,21.10
2016,04,20,09,49,21.20
2016,04,20,09,50,21.20
2016,04,20,09,51,21.20
2016,04,20,09,52,21.20
2016,04,20,09,53,21.20
2016,04,20,09,54,21.20
2016,04,20,09,55,21.20
2016,04,20,09,56,21.10
2016,04,20,09,57,21.10
2016,04,20,09,58,21.10
2016,04,20,09,59,21.00
2016,04,20,10,00,20.90
2016,04,20,10,01,20.90
2016,04,20,10,02,20.90
2016,04,20,10,03,20.90
2016,04,20,10,04,20.90
2016,04,20,10,05,20.90
2016,04,20,10,06,20.90
2016,04,20,10,07,20.90
2016,04,20,10,08,21.00
2016,04,20,10,09,21.10
2016,04,20,10,10,21.10
2016,04,20,10,11,21.20
2016,04,20,10,12,21.20
2016,04,20,10,13,21.30
2016,04,20,10,14,21.30
2016,04,20,10,15,21.30
2016,04,20,10,16,21.30
2016,04,20,10,17,21.30
2016,04,20,10,18,21.30
2016,04,20,10,19,21.20
2016,04,20,10,20,21.20
2016,04,20,10,21,21.20
2016,04,20,10,22,21.20
2016,04,20,10,23,21.20
2016,04,20,10,24,21.30
2016,04,20,10,25,21.30
2016,04,20,10,26,21.30
2016,04,20,10,27,21.30
2016,04,20,10,28,21.30
2016,04,20,10,29,21.40
2016,04,20,10,30,21.50
2016,04,20,10,31,21.60
2016,04,20,10,32,21.60
2016,04,20,10,33,21.60
2016,04,20,10,34,21.60
2016,04,20,10,35,21.60
2016,04,20,10,36,21.50
2016,04,20,10,37,21.60
2016,04,20,10,38,21.60
2016,04,20,10,39,21.60
2016,04,20,10,40,21.60
2016,04,20,10,41,21.60
2016,04,20,10,42,21.60
2016,04,20,10,43,21.60
2016,04,20,10,44,21.60
2016,04,20,10,45,21.60
2016,04,20,10,46,21.60
2016,04,20,10,47,21.60
2016,04,20,10,48,21.70
2016,04,20,10,49,21.70
2016,04,20,10,50,21.80
2016,04,20,10,51,21.90
2016,04,20,10,52,22.00
2016,04,20,10,53,22.10
2016,04,20,10,54,22.10
2016,04,20,10,55,22.20
2016,04,20,10,56,22.20
2016,04,20,10,57,22.20
2016,04,20,10,58,22.30
2016,04,20,10,59,22.30
2016,04,20,11,00,22.40
2016,04,20,11,01,22.30
2016,04,20,11,02,22.30
2016,04,20,11,03,22.30
2016,04,20,11,04,22.30
2016,04,20,11,05,22.30
2016,04,20,11,06,22.30
2016,04,20,11,07,22.30
2016,04,20,11,08,22.40
2016,04,20,11,09,22.40
2016,04,20,11,10,22.50
2016,04,20,11,11,22.50
2016,04,20,11,12,22.60
2016,04,20,11,13,22.60
2016,04,20,11,14,22.60
2016,04,20,11,15,22.50
2016,04,20,11,16,22.50
2016,04,20,11,17,22.50
2016,04,20,11,18,22.50
2016,04,20,11,19,22.50
2016,04,20,11,20,22.50
2016,04,20,11,21,22.50
2016,04,20,11,22,22.50
2016,04,20,11,23,22.60
2016,04,20,11,24,22.50
2016,04,20,11,25,22.40
2016,04,20,11,26,22.30
2016,04,20,11,27,22.20
2016,04,20,11,28,22.20
2016,04,20,11,29,22.20
2016,04,20,11,30,22.20
2016,04,20,11,31,22.20
2016,04,20,11,32,22.20
2016,04,20,11,33,22.30
2016,04,20,11,34,22.30
2016,04,20,11,35,22.30
2016,04,20,11,36,22.20
2016,04,20,11,37,22.20
2016,04,20,11,38,22.20
2016,04,20,11,39,22.20
2016,04,20,11,40,22.20
2016,04,20,11,41,22.20
2016,04,20,11,42,22.30
2016,04,20,11,43,22.40
2016,04,20,11,44,22.50
2016,04,20,11,45,22.60
2016,04,20,11,46,22.80
2016,04,20,11,47,22.90
2016,04,20,11,48,23.00
2016,04,20,11,49,23.00
2016,04,20,11,50,23.10
2016,04,20,11,51,23.10
2016,04,20,11,52,23.10
2016,04,20,11,53,23.10
2016,04,20,11,54,23.10
2016,04,20,11,55,23.20
2016,04,20,11,56,23.20
2016,04,20,11,57,23.30
2016,04,20,11,58,23.30
2016,04,20,11,59,23.30
2016,04,20,12,00,23.40
2016,04,20,12,01,23.40
2016,04,20,12,02,23.40
2016,04,20,12,03,23.40
2016,04,20,12,04,23.40
2016,04,20,12,05,23.40
2016,04,20,12,06,23.50
2016,04,20,12,07,23.50
2016,04,20,12,08,23.50
2016,04,20,12,09,23.60
2016,04,20,12,10,23.60
2016,04,20,12,11,23.60
2016,04,20,12,12,23.60
2016,04,20,12,13,23.60
2016,04,20,12,14,23.50
2016,04,20,12,15,23.40
2016,04,20,12,16,23.40
2016,04,20,12,17,23.50
2016,04,20,12,18,23.60
2016,04,20,12,19,23.60
2016,04,20,12,20,23.70
2016,04,20,12,21,23.70
2016,04,20,12,22,23.80
2016,04,20,12,23,23.80
2016,04,20,12,24,23.80
2016,04,20,12,25,23.90
2016,04,20,12,26,23.90
2016,04,20,12,27,23.90
2016,04,20,12,28,23.90
2016,04,20,12,29,23.90
2016,04,20,12,30,24.00
2016,04,20,12,31,23.90
2016,04,20,12,32,23.80
2016,04,20,12,33,23.80
2016,04,20,12,34,23.70
2016,04,20,12,35,23.70
2016,04,20,12,36,23.70
2016,04,20,12,37,23.70
2016,04,20,12,38,23.70
2016,04,20,12,39,23.80
2016,04,20,12,40,23.90
2016,04,20,12,41,24.00
2016,04,20,12,42,24.10
2016,04,20,12,43,24.20
2016,04,20,12,44,24.30
2016,04,20,12,45,24.30
2016,04,20,12,46,24.20
2016,04,20,12,47,24.20
2016,04,20,12,48,24.20
2016,04,20,12,49,24.20
2016,04,20,12,50,24.10
2016,04,20,12,51,24.10
2016,04,20,12,52,24.00
2016,04,20,12,53,23.90
2016,04,20,12,54,23.90
2016,04,20,12,55,23.80
2016,04,20,12,56,23.80
2016,04,20,12,57,23.80
2016,04,20,12,58,23.80
2016,04,20,12,59,23.80
2016,04,20,13,00,23.80
2016,04,20,13,01,23.80
2016,04,20,13,02,23.80
2016,04,20,13,03,23.80
2016,04,20,13,04,23.80
2016,04,20,13,05,23.80
2016,04,20,13,06,23.80
2016,04,20,13,07,23.90
2016,04,20,13,08,24.00
2016,04,20,13,09,24.10
2016,04,20,13,10,24.10
2016,04,20,13,11,24.20
2016,04,20,13,12,24.30
2016,04,20,13,13,24.30
2016,04,20,13,14,24.40
2016,04,20,13,15,24.40
2016,04,20,13,16,24.50
2016,04,20,13,17,24.60
2016,04,20,13,18,24.60
2016,04,20,13,19,24.70
2016,04,20,13,20,24.80
2016,04,20,13,21,24.80
2016,04,20,13,22,24.80
2016,04,20,13,23,24.90
2016,04,20,13,24,24.90
2016,04,20,13,25,25.00
2016,04,20,13,26,25.00
2016,04,20,13,27,25.10
2016,04,20,13,28,25.00
2016,04,20,13,29,24.90
2016,04,20,13,30,24.90
2016,04,20,13,31,24.90
2016,04,20,13,32,24.90
2016,04,20,13,33,24.90
2016,04,20,13,34,24.90
2016,04,20,13,35,24.80
2016,04,20,13,36,24.80
2016,04,20,13,37,24.80
2016,04,20,13,38,24.80
2016,04,20,13,39,24.90
2016,04,20,13,40,25.00
2016,04,20,13,41,25.10
2016,04,20,13,42,25.20
2016,04,20,13,43,25.20
2016,04,20,13,44,25.20
2016,04,20,13,45,25.20
2016,04,20,13,46,25.30
2016,04,20,13,47,25.30
2016,04,20,13,48,25.40
2016,04,20,13,49,25.40
2016,04,20,13,50,25.50
2016,04,20,13,51,25.60
2016,04,20,13,52,25.70
2016,04,20,13,53,25.80
2016,04,20,13,54,25.90
2016,04,20,13,55,26.00
2016,04,20,13,56,26.10
2016,04,20,13,57,26.00
2016,04,20,13,58,26.00
2016,04,20,13,59,25.90
2016,04,20,14,00,25.80
2016,04,20,14,01,25.80
2016,04,20,14,02,25.70
2016,04,20,14,03,25.60
2016,04,20,14,04,25.60
2016,04,20,14,05,25.60
2016,04,20,14,06,25.60
2016,04,20,14,07,25.60
2016,04,20,14,08,25.60
2016,04,20,14,09,25.60
2016,04,20,14,10,25.60
2016,04,20,14,11,25.60
2016,04,20,14,12,25.60
2016,04,20,14,13,25.60
2016,04,20,14,14,25.70
2016,04,20,14,15,25.70
2016,04,20,14,16,25.70
2016,04,20,14,17,25.80
2016,04,20,14,18,25.90
2016,04,20,14,19,26.00
2016,04,20,14,20,26.00
2016,04,20,14,21,26.00
2016,04,20,14,22,26.10
2016,04,20,14,23,26.00
2016,04,20,14,24,26.00
2016,04,20,14,25,26.00
2016,04,20,14,26,25.90
2016,04,20,14,27,25.90
2016,04,20,14,28,25.90
2016,04,20,14,29,26.00
2016,04,20,14,30,26.00
2016,04,20,14,31,26.10
2016,04,20,14,32,26.10
2016,04,20,14,33,26.20
2016,04,20,14,34,26.30
2016,04,20,14,35,26.40
2016,04,20,14,36,26.50
2016,04,20,14,37,26.50
2016,04,20,14,38,26.60
2016,04,20,14,39,26.70
2016,04,20,14,40,26.70
2016,04,20,14,41,26.70
2016,04,20,14,42,26.70
2016,04,20,14,43,26.70
2016,04,20,14,44,26.70
2016,04,20,14,45,26.70
2016,04,20,14,46,26.70
2016,04,20,14,47,26.70
2016,04,20,14,48,26.70
2016,04,20,14,49,26.60
2016,04,20,14,50,26.50
2016,04,20,14,51,26.50
2016,04,20,14,52,26.40
2016,04,20,14,53,26.40
2016,04,20,14,54,26.30
2016,04,20,14,55,26.30
2016,04,20,14,56,26.30
2016,04,20,14,57,26.20
2016,04,20,14,58,26.20
2016,04,20,14,59,26.20
2016,04,20,15,00,26.20
2016,04,20,15,01,26.30
2016,04,20,15,02,26.30
2016,04,20,15,03,26.40
2016,04,20,15,04,26.50
2016,04,20,15,05,26.60
2016,04,20,15,06,26.60
2016,04,20,15,07,26.70
2016,04,20,15,08,26.80
2016,04,20,15,09,26.80
2016,04,20,15,10,26.80
2016,04,20,15,11,26.90
2016,04,20,15,12,26.90
2016,04,20,15,13,27.00
2016,04,20,15,14,27.10
2016,04,20,15,15,27.20
2016,04,20,15,16,27.20
2016,04,20,15,17,27.30
2016,04,20,15,18,27.30
2016,04,20,15,19,27.30
2016,04,20,15,20,27.30
2016,04,20,15,21,27.20
2016,04,20,15,22,27.20
2016,04,20,15,23,27.20
2016,04,20,15,24,27.20
2016,04,20,15,25,27.10
2016,04,20,15,26,27.10
2016,04,20,15,27,27.00
2016,04,20,15,28,26.90
2016,04,20,15,29,26.80
2016,04,20,15,30,26.80
2016,04,20,15,31,26.80
2016,04,20,15,32,26.90
2016,04,20,15,33,27.00
2016,04,20,15,34,27.10
2016,04,20,15,35,27.20
2016,04,20,15,36,27.20
2016,04,20,15,37,27.30
2016,04,20,15,38,27.20
2016,04,20,15,39,27.10
2016,04,20,15,40,27.00
2016,04,20,15,41,27.00
2016,04,20,15,42,26.90
2016,04,20,15,43,26.90
2016,04,20,15,44,26.90
2016,04,20,15,45,26.90
2016,04,20,15,46,27.00
2016,04,20,15,47,27.00
2016,04,20,15,48,27.00
2016,04,20,15,49,27.10
2016,04,20,15,50,27.10
2016,04,20,15,51,27.20
2016,04,20,15,52,27.30
2016,04,20,15,53,27.50
2016,04,20,15,54,27.60
2016,04,20,15,55,27.70
2016,04,20,15,56,27.70
2016,04,20,15,57,27.80
2016,04,20,15,58,27.80
2016,04,20,15,59,27.80
2016,04,20,16,00,27.80
2016,04,20,16,01,27.90
2016,04,20,16,02,27.80
2016,04,20,16,03,27.70
2016,04,20,16,04,27.50
2016,04,20,16,05,27.40
2016,04,20,16,06,27.40
2016,04,20,16,07,27.40
2016,04,20,16,08,27.40
2016,04,20,16,09,27.40
2016,04,20,16,10,27.40
2016,04,20,16,11,27.30
2016,04,20,16,12,27.20
2016,04,20,16,13,27.10
2016,04,20,16,14,27.20
2016,04,20,16,15,27.20
2016,04,20,16,16,27.20
2016,04,20,16,17,27.20
2016,04,20,16,18,27.20
2016,04,20,16,19,27.30
2016,04,20,16,20,27.30
2016,04,20,16,21,27.30
2016,04,20,16,22,27.20
2016,04,20,16,23,27.30
2016,04,20,16,24,27.30
2016,04,20,16,25,27.30
2016,04,20,16,26,27.30
2016,04,20,16,27,27.30
2016,04,20,16,28,27.30
2016,04,20,16,29,27.30
2016,04,20,16,30,27.40
2016,04,20,16,31,27.50
2016,04,20,16,32,27.50
2016,04,20,16,33,27.60
2016,04,20,16,34,27.60
2016,04,20,16,35,27.70
2016,04,20,16,36,27.80
2016,04,20,16,37,27.90
2016,04,20,16,38,28.00
2016,04,20,16,39,28.00
2016,04,20,16,40,28.10
2016,04,20,16,41,28.10
2016,04,20,16,42,28.20
2016,04,20,16,43,28.30
2016,04,20,16,44,28.40
2016,04,20,16,45,28.40
2016,04,20,16,46,28.20
2016,04,20,16,47,27.90
2016,04,20,16,48,27.70
2016,04,20,16,49,27.50
2016,04,20,16,50,27.40
2016,04,20,16,51,27.30
2016,04,20,16,52,27.10
2016,04,20,16,53,26.80
2016,04,20,16,54,26.40
2016,04,20,16,55,26.00
2016,04,20,16,56,25.70
2016,04,20,16,57,25.40
2016,04,20,16,58,25.10
2016,04,20,16,59,24.70
2016,04,20,17,00,24.40
2016,04,20,17,01,24.10
2016,04,20,17,02,24.00
2016,04,20,17,03,23.90
2016,04,20,17,04,23.80
2016,04,20,17,05,23.70
2016,04,20,17,06,23.80
2016,04,20,17,07,23.70
2016,04,20,17,08,23.60
2016,04,20,17,09,23.50
2016,04,20,17,10,23.40
2016,04,20,17,11,23.30
2016,04,20,17,12,23.30
2016,04,20,17,13,23.30
2016,04,20,17,14,23.30
2016,04,20,17,15,23.30
2016,04,20,17,16,23.30
2016,04,20,17,17,23.30
2016,04,20,17,18,23.20
2016,04,20,17,19,23.20